Probability
0 0 0 0 0 0 0 0 0 0 0 0 0 0 0 0 0 0 0 0 0 0 0 0 0 0 0 0 0 0 0 0 0 0 0 0 0 0 0 0 0 0 0 0
0 0 0 0 0 0 0 0 0 0 0 0 0 0 0 0 0 0 0 0 0 0 0 0 0 0 0 0 0 0 0 0 0 0 0 0 0 0 0 0 0 0 0 0
0 0 0 0 0 0 0 0 0 0 0 0 0 0 0 0 0 0 0 0 0 0 0 0 0 0 0 0 0 0 0 0 0 0 0 0 0 0 0 0 0 0 0 0
0 0 0 0 0 0 0 0 0 0 0 0 0 0 0 0 0 0 0 0 0 0 0 0 0 0 0 0 0 0 0 0 0 0 0 0 0 0 0 0 0 0 0 0
0 0 0 0 0 0 0 0 0 0 0 0 0 0 0 0 0 0 0 0 0 0 0 0 0 0 0 0 0 0 0 0 0 0 0 0 0 0 0 0 0 0 0 0
0 0 0 0 0 0 0 0 0 0 0 0 0 0 0 0 0 0 0 0 0 0 0 0 0 0 0 0 0 0 0 0 0 0 0 0 0 0 0 0 0 0 0 0
0 0 0 0 0 0 0 0 0 0 0 0 0 0 0 0 0 0 0 0 0 0 0 0 0 0 0 0 0 0 0 0 0 0 0 0 0 0 0 0 0 0 0 0
0 0 0 0 0 0 0 0 0 0 0 0 0 0 0 0 0 0 0 0 0 0 0 0 0 0 0 0 0 0 0 0 0 0 0 0 0 0 0 0 0 0 0 0
0 0 0 0 0 0 0 0 0 0 0 0 0 0 0 0 0 0 0 0 0 0 0 0 0 0 0 0 0 0 0 0 0 0 0 0 0 0 0 0 0 0 0 0
0 0 0 0 0 0 0 0 0 0 0 0 0 0 0 0 0 0 0 0 0 0 0 0 0 0 0 0 0 0 0 0 0 0 0 0 0 0 0 0 0 0 0 0
0 0 0 0 0 0 0 0 0 0 0 0 0 0 0 0 0 0 0 0 0 0 0 0 0 0 0 0 0 0 0 0 0 0 0 0 0 0 0 0 0 0 0 0
0 0 0 0 0 0 0 0 0 0 0 0 0 0 0 0 0 0 0 0 0 0 0 0 0 0 0 0 0 0 0 0 0 0 0 0 0 0 0 0 0 0 0 0
0 0 0 0 0 0 0 0 0 0 0 0 0 0 0 0 0 0 0 0 0 0 0 0 0 0 0 0 0 0 0 0 0 0 0 0 0 0 0 0 0 0 0 0
0 0 0 0 0 0 0 0 0 0 0 0 0 0 0 0 0 0 0 0 0 0 0 0 0 0 0 0 0 0 0 0 0 0 0 0 0 0 0 0 0 0 0 0
0 0 0 0 0 0 0 0 0 0 0 0 0 0 0 0 0 0 0 0 0 0 0 0 0 0 0 0 0 0 0 0 0 0 0 0 0 0 0 0 0 0 0 0
0 0 0 0 0 0 0 0 0 0 0 0 0 0 0 0 0 0 0 0 0 0 0 0 0 0 0 0 0 0 0 0 0 0 0 0 0 0 0 0 0 0 0 0
0 0 0 0 0 0 0 0 0 0 0 0 0 0 0 0 0 0 0 0 0 0 0 0 0 0 0 0 0 0 0 0 0 0 0 0 0 0 0 0 0 0 0 0
0 0 0 0 0 0 0 0 0 0 0 0 0 0 0 0 0 0 0 0 0 0 0 0 0 0 0 0 0 0 0 0 0 0 0 0 0 0 0 0 0 0 0 0
0 0 0 0 0 0 0 0 0 0 0 0 0 0 0 0 0 0 0 0 0 0 0 0 0 0 0 0 0 0 0 0 0 0 0 0 0 0 0 0 0 0 0 0
0 0 0 0 0 0 0 0 0 0 0 0 0 0 0 0 0 0 0 0 0 0 0 0 0 0 0 0 0 0 0 0 0 0 0 0 0 0 0 0 0 0 0 0
0 0 0 0 0 0 0 0 0 0 0 0 0 0 0 0 0 0 0 0 0 0 0 0 0 0 0 0 0 0 0 0 0 0 0 0 0 0 0 0 0 0 0 0
0 0 0 0 0 0 0 0 0 0 0 0 0 0 0 0 0 0 0 0 0 0 0 0 0 0 0 0 0 0 0 0 0 0 0 0 0 0 0 0 0 0 0 0
0 0 0 0 0 0 0 0 0 0 0 0 0 0 0 0 0 0 0 0 0 0 0 0 0 0 0 0 0 0 0 0 0 0 0 0 0 0 0 0 0 0 0 0
0 0 0 0 0 0 0 0 0 0 0 0 0 0 0 0 0 0 0 0 0 0 0 0 0 0 0 0 0 0 0 0 0 0 0 0 0 0 0 0 0 0 0 0
0 0 0 0 0 0 0 0 0 0 0 0 0 0 0 0 0 0 0 0 0 0 0 0 0 0 0 0 0 0 0 0 0 0 0 0 0 0 0 0 0 0 0 0
0 0 0 0 0 0 0 0 0 0 0 0 0 0 0 0 0 0 0 0 0 0 0 0 0 0 0 0 0 0 0 0 0 0 0 0 0 0 0 0 0 0 0 0
0 0 0 0 0 0 0 0 0 0 0 0 0 0 0 0 0 0 0 0 0 0 0 0 0 0 0 0 0 0 0 0 0 0 0 0 0 0 0 0 0 0 0 0
Wind_Speed
6 6 5 6 6 7 6 7 7 7 6 8 11 12 10 9 8 6 6 6 5 4 4 4 4 3 3 3 2 1 1 2 2 3 3 4 4 4 4 5 5 5 5 6
3 5 5 4 6 8 8 6 7 6 8 7 5 6 7 8 8 8 7 6 5 4 3 4 4 4 3 3 2 2 2 1 1 3 4 4 4 3 4 4 4 4 5 5
4 4 1 6 7 7 7 7 8 8 8 3 4 8 10 10 9 9 8 7 5 3 3 4 4 4 4 4 2 2 2 1 1 2 3 3 3 3 3 4 4 4 5 5
1 3 2 7 4 4 5 5 7 6 6 10 9 10 9 9 10 9 8 6 5 3 2 3 2 2 3 2 3 2 2 1 1 2 2 2 3 3 3 3 3 3 4 5
2 1 6 6 3 0 1 4 4 7 7 8 4 3 3 7 9 9 8 7 5 4 3 2 2 1 3 3 3 3 2 1 1 2 1 1 3 3 3 3 3 3 3 4
3 0 4 6 3 1 2 5 5 5 7 7 8 3 7 8 8 8 7 6 5 4 2 2 1 2 5 4 4 3 3 3 2 2 1 0 2 3 3 2 3 3 2 3
3 3 8 7 1 3 1 7 5 3 7 10 11 10 6 5 8 8 8 7 5 4 3 3 2 4 5 5 5 5 4 3 3 3 3 2 2 2 2 3 3 4 3 3
4 2 8 5 4 5 9 5 3 2 5 9 10 6 4 6 8 9 7 7 6 5 4 4 4 5 6 6 6 5 4 4 3 3 3 1 0 2 2 3 3 4 3 3
9 9 8 6 9 7 5 4 3 3 4 7 7 7 7 7 8 9 8 7 6 6 5 4 5 6 7 7 6 6 5 4 4 3 2 1 1 0 1 2 2 2 2 2
3 6 5 6 7 6 5 6 5 4 4 7 7 9 9 8 8 8 8 8 6 6 6 5 6 7 7 7 7 6 6 5 4 4 3 2 1 1 1 0 1 1 2 2
3 6 5 5 4 4 4 5 6 5 4 7 8 8 9 9 9 9 8 7 6 7 8 8 6 7 7 7 7 6 6 5 5 4 4 3 3 2 2 3 3 2 1 1
5 5 3 3 8 7 4 5 5 5 4 3 6 9 9 9 9 9 9 8 7 8 8 8 7 7 7 7 7 7 5 5 4 4 4 4 3 2 4 4 5 5 4 3
5 7 2 4 9 13 9 9 6 4 4 4 4 6 8 9 9 9 9 9 10 10 10 9 8 8 8 8 7 7 6 5 4 4 4 4 4 4 3 4 5 6 6 6
7 6 7 8 9 11 11 12 10 9 7 5 4 4 4 6 7 9 11 12 11 10 10 9 8 9 8 8 8 8 6 6 6 5 5 5 5 5 4 3 3 3 5 7
9 7 4 5 7 11 12 13 14 14 13 12 8 6 5 6 8 11 12 10 9 9 10 9 9 10 8 8 9 8 6 5 5 5 5 5 4 4 4 4 4 3 2 3
5 5 7 10 13 14 14 15 14 14 13 12 12 11 9 8 9 9 9 9 9 12 12 11 12 11 9 9 9 7 6 9 8 5 5 4 4 4 4 4 4 4 4 4
7 9 10 11 12 12 12 11 11 11 12 13 14 14 12 10 8 8 8 9 12 14 13 13 13 11 10 10 10 7 6 7 10 6 5 5 5 5 5 5 5 5 5 6
5 6 6 6 7 9 10 11 12 12 12 13 15 14 13 12 11 11 11 9 9 10 10 12 12 10 10 11 10 7 7 6 6 6 5 6 5 5 5 5 6 6 5 5
7 7 8 8 8 8 8 10 11 11 12 14 15 15 14 14 14 13 11 8 9 11 11 11 15 13 11 12 12 8 8 7 6 6 6 7 7 5 5 5 6 6 6 5
6 6 7 7 7 7 7 8 9 10 11 13 14 15 16 17 17 16 13 9 8 8 8 9 11 12 12 12 14 8 9 9 8 7 6 6 6 6 6 6 6 6 6 6
4 5 5 6 6 6 7 7 8 10 10 11 12 13 14 15 16 15 13 11 11 12 11 10 9 9 10 11 15 10 10 10 9 8 7 7 7 7 7 7 7 6 7 7
2 3 4 4 5 6 6 6 7 8 9 10 11 12 13 14 15 14 11 9 14 19 13 8 7 10 12 14 10 10 11 11 9 8 8 7 7 7 7 7 7 7 7 7
2 2 3 4 4 5 6 6 6 7 8 9 10 11 11 10 9 11 13 13 14 21 14 9 12 13 15 12 9 11 11 11 10 10 9 9 8 8 8 8 7 7 6 7
3 4 4 4 3 4 6 6 6 6 7 7 7 8 9 9 9 7 8 16 22 22 13 15 19 17 13 9 8 10 11 11 10 10 9 8 8 7 7 7 7 7 7 8
4 4 4 4 4 4 5 6 6 6 6 6 7 8 6 5 7 10 10 12 19 19 13 17 22 21 10 6 6 8 9 10 10 10 9 8 8 8 8 7 7 7 7 6
5 5 5 5 5 5 4 3 4 4 4 6 6 6 6 6 7 8 9 11 14 17 13 11 13 14 11 9 6 5 6 7 9 9 9 9 9 9 8 8 9 8 7 7
5 4 4 4 5 5 4 4 4 5 4 5 6 6 7 7 7 8 9 9 10 10 10 10 11 11 11 11 9 7 5 4 5 6 7 8 8 8 9 10 8 7 7 7
Wind_Direction
229 222 189 200 199 193 185 191 202 236 238 239 218 210 210 212 220 232 244 250 252 254 268 274 272 257 242 240 233 181 92 43 8 359 8 15 17 14 11 12 15 5 6 2
298 253 214 243 236 209 215 212 221 240 263 252 202 183 197 207 212 221 232 241 244 249 270 281 269 250 234 227 220 178 133 77 16 26 24 18 14 14 10 0 354 360 3 359
305 326 72 277 249 211 214 210 193 215 236 176 165 192 201 204 206 212 221 227 230 239 260 274 264 234 218 211 191 159 149 130 60 52 38 18 16 15 359 345 346 348 351 355
353 20 263 258 261 201 211 236 209 211 205 182 195 204 204 197 197 207 211 208 214 223 252 268 265 228 199 173 153 147 144 136 114 83 52 19 13 355 336 327 334 334 343 350
82 334 288 294 289 189 223 288 231 211 209 200 177 138 249 218 196 196 198 197 203 207 208 232 257 205 146 135 141 146 159 166 157 139 89 17 351 330 320 326 327 324 327 347
99 320 264 264 280 93 75 290 278 205 200 179 138 164 251 223 199 195 191 187 190 186 182 218 232 134 126 143 153 174 190 190 177 170 157 282 311 311 315 321 322 329 351 0
166 238 267 258 250 68 84 255 272 212 192 174 184 203 222 196 186 187 186 192 184 173 189 223 194 140 140 165 192 202 193 181 178 192 208 238 292 315 329 347 2 8 18 13
156 203 267 242 156 189 222 238 264 235 199 194 212 219 211 186 180 180 185 191 185 184 212 226 188 159 167 197 210 202 192 189 201 217 232 206 300 345 2 18 27 18 19 7
182 212 239 226 213 226 198 219 248 234 225 199 198 198 192 187 183 186 190 196 196 196 214 223 198 180 188 211 203 197 199 209 219 224 232 218 184 91 22 21 27 10 12 356
230 265 263 259 251 255 229 238 253 237 216 185 194 195 193 192 192 196 200 202 202 200 213 227 213 204 206 204 193 191 205 218 219 213 221 224 206 177 151 333 346 344 347 339
264 286 316 340 325 286 259 263 271 261 218 200 196 197 197 198 201 203 205 206 198 201 212 224 219 216 215 203 188 193 206 215 214 208 203 206 209 210 205 220 209 213 246 270
245 277 261 312 352 358 346 304 282 269 264 231 201 205 203 206 207 205 207 205 203 207 214 221 216 219 217 203 191 190 203 212 210 203 200 198 205 236 255 245 249 238 229 232
292 296 315 351 12 9 1 345 328 308 282 272 249 221 208 210 211 210 212 209 208 210 214 217 215 220 217 201 194 195 200 206 202 198 196 197 200 209 242 269 260 263 263 264
346 9 31 11 352 352 1 2 5 6 350 327 296 264 232 224 219 214 217 217 214 212 215 214 214 221 216 197 196 202 203 204 195 197 198 200 203 206 206 215 244 267 264 255
12 28 26 347 0 10 10 12 14 6 354 344 331 309 275 246 233 228 225 218 211 213 217 213 214 222 210 194 196 201 198 199 197 198 202 205 205 204 206 210 214 228 245 269
359 24 29 27 21 13 12 13 7 356 349 342 337 325 302 273 255 245 232 213 206 216 217 212 216 218 200 192 196 199 202 206 193 194 201 206 207 208 213 212 210 210 216 223
37 26 19 18 13 9 8 4 358 350 347 345 338 330 322 311 294 276 255 230 221 222 216 211 216 212 196 192 192 196 198 205 202 195 201 204 206 211 216 212 211 213 220 212
45 38 27 15 7 2 1 359 357 354 352 345 341 341 340 333 315 295 276 257 242 237 227 218 215 205 197 194 194 194 193 196 194 199 206 210 212 212 212 213 216 217 221 212
30 28 21 15 9 5 360 357 354 352 353 353 352 350 344 339 329 316 301 277 252 247 241 225 216 205 201 200 193 192 193 196 198 203 207 218 220 216 212 213 215 213 206 197
26 18 12 5 2 1 358 353 352 356 357 357 356 353 349 345 340 334 322 294 270 270 263 232 216 211 207 203 194 193 196 198 200 202 205 209 214 218 216 214 212 209 205 203
20 11 3 355 349 347 346 345 350 352 353 358 359 353 345 341 343 343 340 330 323 322 308 263 232 219 209 204 198 196 199 201 202 203 204 208 214 218 219 218 216 212 208 207
354 348 342 339 339 334 331 335 342 344 348 350 352 351 349 346 344 342 339 333 327 328 321 293 262 235 220 208 202 199 202 204 205 204 204 205 209 215 219 218 218 217 213 209
279 286 300 310 315 314 322 331 336 337 340 340 341 343 341 336 337 339 334 332 332 331 326 311 301 273 237 216 208 204 205 206 207 207 207 207 208 210 213 216 215 215 214 213
264 274 279 285 305 321 319 315 319 323 325 325 327 330 330 330 329 328 319 325 334 337 332 327 325 311 269 235 218 211 209 208 208 208 208 207 207 208 211 212 213 213 213 214
262 268 274 288 292 283 281 294 308 314 320 319 318 320 320 315 314 320 323 328 335 341 337 337 340 336 316 278 242 225 216 211 210 206 206 206 207 209 211 211 212 211 210 210
255 257 258 254 251 254 259 269 280 290 302 310 314 314 316 317 316 318 323 327 333 339 340 339 341 343 340 329 304 269 244 228 217 212 209 208 209 208 209 211 212 210 209 208
268 265 267 274 269 254 247 248 256 267 272 280 294 300 307 312 316 320 324 327 332 335 335 337 341 343 344 344 338 326 305 275 246 226 216 212 210 210 211 210 208 206 203 202